| time (UTC) | temp F | wind direction | speed knots | gust knots | rain 1hr in | rain 24hr in | rain mn in | humidity % | barometer mb |
| 20260906193023 | 85 | 66 | 2.6 | 8.7 | 0.00 | 0.03 | 0.03 | 69 | 1015.3 |
| 20260906192535 | 85 | 123 | 4.3 | 8.7 | 0.00 | 0.03 | 0.03 | 71 | 1015.1 |
| 20260906192022 | 85 | 89 | 2.6 | 6.1 | 0.00 | 0.03 | 0.03 | 70 | 1015.1 |
| 20260906191535 | 84 | 51 | 1.7 | 6.1 | 0.00 | 0.03 | 0.03 | 68 | 1015.2 |
| 20260906191020 | 84 | 46 | 2.6 | 4.3 | 0.00 | 0.03 | 0.03 | 69 | 1015.2 |
| 20260906190515 | 84 | 46 | 1.7 | 4.3 | 0.00 | 0.03 | 0.03 | 70 | 1015.4 |
| 20260906190023 | 84 | 331 | 2.6 | 6.1 | 0.00 | 0.03 | 0.03 | 68 | 1015.4 |
| 20260906185558 | 84 | 40 | 1.7 | 6.1 | 0.00 | 0.03 | 0.03 | 69 | 1015.5 |
| 20260906185045 | 84 | 125 | 2.6 | 7.0 | 0.00 | 0.03 | 0.03 | 69 | 1015.5 |
| 20260906184523 | 84 | 1 | 3.5 | 7.0 | 0.00 | 0.03 | 0.03 | 73 | 1015.4 |
| 20260906184037 | 83 | 323 | 3.5 | 7.0 | 0.00 | 0.03 | 0.03 | 74 | 1015.5 |
| 20260906183532 | 83 | 35 | 1.7 | 8.7 | 0.00 | 0.03 | 0.03 | 74 | 1015.6 |
| 20260906183019 | 83 | 1 | 3.5 | 8.7 | 0.00 | 0.03 | 0.03 | 74 | 1015.8 |
| 20260906182552 | 83 | 46 | 1.7 | 4.3 | 0.00 | 0.03 | 0.03 | 74 | 1016.0 |
| 20260906182037 | 83 | 46 | 2.6 | 7.8 | 0.00 | 0.03 | 0.03 | 75 | 1016.1 |
| 20260906181524 | 83 | 6 | 2.6 | 7.8 | 0.00 | 0.03 | 0.03 | 76 | 1016.1 |
| 20260906181056 | 83 | 206 | 1.7 | 5.2 | 0.00 | 0.03 | 0.03 | 76 | 1016.2 |
| 20260906180522 | 82 | 334 | 1.7 | 4.3 | 0.00 | 0.03 | 0.03 | 76 | 1016.4 |
| 20260906180034 | 82 | 145 | 1.7 | 5.2 | 0.00 | 0.03 | 0.03 | 77 | 1016.6 |
| 20260906175537 | 82 | 89 | 0.9 | 6.1 | 0.00 | 0.03 | 0.03 | 77 | 1016.6 |
| 20260906175022 | 81 | 52 | 1.7 | 6.1 | 0.00 | 0.03 | 0.03 | 78 | 1016.6 |
| 20260906174547 | 81 | 89 | 2.6 | 6.1 | 0.00 | 0.03 | 0.03 | 81 | 1016.6 |
| 20260906174036 | 80 | 32 | 1.7 | 4.3 | 0.00 | 0.03 | 0.03 | 81 | 1016.5 |
| 20260906173520 | 80 | 336 | 1.7 | 4.3 | 0.00 | 0.03 | 0.03 | 81 | 1016.3 |
| 20260906173037 | 80 | 135 | 0.9 | 4.3 | 0.00 | 0.03 | 0.03 | 81 | 1016.6 |
| 20260906172522 | 80 | 277 | 0.9 | 5.2 | 0.00 | 0.03 | 0.03 | 81 | 1016.7 |
| 20260906172036 | 80 | 178 | 1.7 | 5.2 | 0.00 | 0.03 | 0.03 | 81 | 1016.4 |
| 20260906171524 | 80 | 46 | 2.6 | 6.1 | 0.00 | 0.03 | 0.03 | 81 | 1016.4 |
| 20260906171016 | 80 | 119 | 1.7 | 6.1 | 0.00 | 0.03 | 0.03 | 82 | 1016.6 |
| 20260906170533 | 80 | 124 | 2.6 | 7.0 | 0.00 | 0.03 | 0.03 | 83 | 1016.4 |
| 20260906170019 | 80 | 103 | 3.5 | 7.0 | 0.00 | 0.03 | 0.03 | 82 | 1016.3 |
| 20260906165555 | 79 | 108 | 2.6 | 5.2 | 0.00 | 0.03 | 0.03 | 82 | 1016.5 |
| 20260906165018 | 79 | 89 | 1.7 | 6.1 | 0.00 | 0.03 | 0.03 | 82 | 1016.5 |
| 20260906164532 | 79 | 72 | 1.7 | 6.1 | 0.00 | 0.03 | 0.03 | 84 | 1016.8 |
| 20260906164041 | 79 | 6 | 2.6 | 5.2 | 0.00 | 0.03 | 0.03 | 85 | 1016.8 |
| 20260906163537 | 78 | 8 | 2.6 | 5.2 | 0.00 | 0.03 | 0.03 | 85 | 1016.6 |
| 20260906163025 | 78 | 125 | 1.7 | 5.2 | 0.00 | 0.03 | 0.03 | 85 | 1016.6 |
| 20260906162516 | 78 | 56 | 0.9 | 5.2 | 0.00 | 0.03 | 0.03 | 87 | 1016.7 |
| 20260906162051 | 77 | 32 | 2.6 | 5.2 | 0.00 | 0.03 | 0.03 | 87 | 1016.8 |
| 20260906161515 | 78 | 40 | 2.6 | 4.3 | 0.00 | 0.03 | 0.03 | 87 | 1016.7 |
| 20260906161017 | 77 | 72 | 1.7 | 6.1 | 0.00 | 0.03 | 0.03 | 88 | 1016.7 |
| 20260906160536 | 77 | 32 | 2.6 | 6.1 | 0.00 | 0.03 | 0.03 | 89 | 1016.7 |
| 20260906160022 | 77 | 114 | 3.5 | 6.1 | 0.00 | 0.03 | 0.03 | 89 | 1016.7 |
| 20260906155535 | 76 | 76 | 3.5 | 6.1 | 0.00 | 0.03 | 0.03 | 90 | 1016.5 |
| 20260906155019 | 76 | 124 | 1.7 | 5.2 | 0.00 | 0.03 | 0.03 | 91 | 1016.5 |
| 20260906154534 | 76 | 46 | 1.7 | 5.2 | 0.00 | 0.03 | 0.03 | 92 | 1016.3 |
| 20260906154022 | 75 | 130 | 1.7 | 5.2 | 0.00 | 0.03 | 0.03 | 92 | 1016.0 |
| 20260906153534 | 75 | 89 | 2.6 | 6.1 | 0.00 | 0.03 | 0.03 | 93 | 1015.8 |
| 20260906153030 | 75 | 103 | 3.5 | 6.1 | 0.00 | 0.03 | 0.03 | 93 | 1015.8 |
| 20260906152514 | 75 | 103 | 2.6 | 7.0 | 0.00 | 0.03 | 0.03 | 93 | 1015.8 |
| 20260906152029 | 75 | 121 | 3.5 | 7.0 | 0.00 | 0.03 | 0.03 | 94 | 1015.8 |
| 20260906151538 | 75 | 127 | 3.5 | 5.2 | 0.00 | 0.03 | 0.03 | 94 | 1015.8 |
| 20260906151028 | 74 | 107 | 1.7 | 4.3 | 0.00 | 0.03 | 0.03 | 94 | 1015.8 |
| 20260906150603 | 74 | 122 | 2.6 | 4.3 | 0.00 | 0.03 | 0.03 | 94 | 1015.8 |
| 20260906150016 | 74 | 105 | 1.7 | 2.6 | 0.00 | 0.03 | 0.03 | 94 | 1015.9 |
| 20260906145533 | 74 | 1 | 0.9 | 2.6 | 0.00 | 0.03 | 0.03 | 94 | 1015.9 |
| 20260906145036 | 74 | 223 | 0.9 | 1.7 | 0.01 | 0.03 | 0.03 | 94 | 1016.0 |
| 20260906144521 | 73 | 223 | 0.9 | 1.7 | 0.01 | 0.03 | 0.03 | 94 | 1016.0 |
| 20260906144022 | 73 | 206 | 0.9 | 2.6 | 0.02 | 0.03 | 0.03 | 94 | 1015.9 |
| 20260906143535 | 73 | 336 | 0.9 | 4.3 | 0.02 | 0.03 | 0.03 | 94 | 1016.0 |
| 20260906143019 | 73 | 324 | 1.7 | 2.6 | 0.02 | 0.03 | 0.03 | 94 | 1015.8 |
| 20260906142534 | 73 | 1 | 0.9 | 3.5 | 0.02 | 0.03 | 0.03 | 93 | 1015.6 |
| 20260906142018 | 73 | 46 | 1.7 | 3.5 | 0.03 | 0.03 | 0.03 | 93 | 1015.8 |
| 20260906141533 | 73 | 314 | 0.0 | 3.5 | 0.03 | 0.03 | 0.03 | 93 | 1015.9 |
| 20260906141017 | 73 | 301 | 0.9 | 2.6 | 0.03 | 0.03 | 0.03 | 93 | 1016.0 |
| 20260906140533 | 73 | 206 | 0.9 | 1.7 | 0.03 | 0.03 | 0.03 | 92 | 1016.4 |
| 20260906140019 | 73 | 241 | 0.0 | 2.6 | 0.03 | 0.03 | 0.03 | 92 | 1016.3 |
| 20260906135533 | 73 | 197 | 0.9 | 3.5 | 0.03 | 0.03 | 0.03 | 92 | 1016.5 |
| 20260906135039 | 74 | 1 | 1.7 | 3.5 | 0.02 | 0.02 | 0.02 | 92 | 1016.6 |
| 20260906134535 | 74 | 178 | 0.9 | 1.7 | 0.02 | 0.02 | 0.02 | 91 | 1016.6 |
| 20260906134020 | 74 | 223 | 0.9 | 4.3 | 0.01 | 0.01 | 0.01 | 91 | 1016.6 |
| 20260906133534 | 74 | 327 | 0.9 | 4.3 | 0.01 | 0.01 | 0.01 | 90 | 1016.6 |
| 20260906133039 | 74 | 209 | 1.7 | 5.2 | 0.01 | 0.01 | 0.01 | 90 | 1016.7 |
| 20260906132525 | 74 | 314 | 2.6 | 5.2 | 0.01 | 0.01 | 0.01 | 90 | 1016.5 |
| 20260906132017 | 74 | 89 | 0.9 | 3.5 | 0.00 | 0.00 | 0.00 | 90 | 1016.5 |
| 20260906131532 | 74 | 336 | 0.9 | 4.3 | 0.00 | 0.00 | 0.00 | 89 | 1016.4 |
| 20260906131017 | 74 | 108 | 2.6 | 4.3 | 0.00 | 0.00 | 0.00 | 89 | 1016.3 |
| 20260906130517 | 75 | 103 | 1.7 | 5.2 | 0.00 | 0.00 | 0.00 | 89 | 1016.1 |
| 20260906130033 | 75 | 178 | 1.7 | 5.2 | 0.00 | 0.00 | 0.00 | 88 | 1016.0 |
| 20260906125524 | 74 | 252 | 1.7 | 3.5 | 0.00 | 0.00 | 0.00 | 88 | 1016.0 |
| 20260906125017 | 75 | 206 | 1.7 | 3.5 | 0.00 | 0.00 | 0.00 | 88 | 1015.9 |
| 20260906124532 | 75 | 321 | 1.7 | 3.5 | 0.00 | 0.00 | 0.00 | 88 | 1015.9 |
| 20260906124039 | 75 | 252 | 0.9 | 3.5 | 0.00 | 0.00 | 0.00 | 88 | 1016.1 |
| 20260906123532 | 75 | 314 | 1.7 | 3.5 | 0.00 | 0.00 | 0.00 | 88 | 1016.0 |
| 20260906123018 | 75 | 340 | 1.7 | 2.6 | 0.00 | 0.00 | 0.00 | 88 | 1015.8 |
| 20260906122532 | 75 | 303 | 0.9 | 4.3 | 0.00 | 0.00 | 0.00 | 88 | 1015.9 |
| 20260906122018 | 75 | 269 | 2.6 | 4.3 | 0.00 | 0.00 | 0.00 | 87 | 1015.3 |
| 20260906121531 | 75 | 254 | 1.7 | 3.5 | 0.00 | 0.00 | 0.00 | 87 | 1015.4 |
| 20260906121016 | 75 | 283 | 1.7 | 3.5 | 0.00 | 0.00 | 0.00 | 87 | 1015.1 |
| 20260906120531 | 75 | 121 | 1.7 | 3.5 | 0.00 | 0.00 | 0.00 | 87 | 1014.7 |
| 20260906120038 | 75 | 115 | 1.7 | 3.5 | 0.00 | 0.00 | 0.00 | 87 | 1014.6 |
| 20260906115543 | 75 | 117 | 0.9 | 1.7 | 0.00 | 0.00 | 0.00 | 86 | 1014.6 |
| 20260906115056 | 75 | 76 | 0.9 | 1.7 | 0.00 | 0.00 | 0.00 | 86 | 1014.6 |
| 20260906114523 | 75 | 63 | 0.9 | 2.6 | 0.00 | 0.00 | 0.00 | 86 | 1014.5 |
| 20260906114016 | 75 | 28 | 0.0 | 2.6 | 0.00 | 0.00 | 0.00 | 86 | 1014.4 |
| 20260906113529 | 75 | 113 | 0.9 | 3.5 | 0.00 | 0.00 | 0.00 | 86 | 1014.4 |
| 20260906113015 | 76 | 117 | 0.9 | 3.5 | 0.00 | 0.00 | 0.00 | 86 | 1014.3 |
| 20260906112531 | 76 | 89 | 2.6 | 3.5 | 0.00 | 0.00 | 0.00 | 85 | 1014.3 |
| 20260906112039 | 76 | 60 | 2.6 | 4.3 | 0.00 | 0.00 | 0.00 | 85 | 1014.2 |
| 20260906111535 | 76 | 126 | 2.6 | 4.3 | 0.00 | 0.00 | 0.00 | 85 | 1014.2 |
| 20260906111023 | 76 | 101 | 2.6 | 3.5 | 0.00 | 0.00 | 0.00 | 85 | 1014.2 |
| 20260906110517 | 76 | 108 | 2.6 | 4.3 | 0.00 | 0.00 | 0.00 | 85 | 1014.2 |
| 20260906110031 | 76 | 102 | 2.6 | 4.3 | 0.00 | 0.00 | 0.00 | 85 | 1014.2 |
| 20260906105516 | 76 | 113 | 2.6 | 4.3 | 0.00 | 0.00 | 0.00 | 85 | 1014.2 |
| 20260906105032 | 76 | 98 | 2.6 | 3.5 | 0.00 | 0.00 | 0.00 | 86 | 1014.2 |
| 20260906104516 | 76 | 113 | 1.7 | 3.5 | 0.00 | 0.00 | 0.00 | 86 | 1014.3 |
| 20260906104033 | 76 | 98 | 1.7 | 3.5 | 0.00 | 0.00 | 0.00 | 86 | 1014.4 |
| 20260906103539 | 76 | 110 | 1.7 | 4.3 | 0.00 | 0.00 | 0.00 | 86 | 1014.4 |
| 20260906103013 | 75 | 122 | 2.6 | 4.3 | 0.00 | 0.00 | 0.00 | 87 | 1014.3 |
| 20260906102521 | 75 | 101 | 2.6 | 6.1 | 0.00 | 0.00 | 0.00 | 87 | 1014.3 |
| 20260906102035 | 75 | 96 | 3.5 | 6.1 | 0.00 | 0.00 | 0.00 | 88 | 1014.3 |
| 20260906101522 | 75 | 103 | 2.6 | 3.5 | 0.00 | 0.00 | 0.00 | 89 | 1014.2 |
| 20260906101037 | 75 | 56 | 1.7 | 2.6 | 0.00 | 0.00 | 0.00 | 89 | 1014.3 |
| 20260906100524 | 75 | 89 | 0.9 | 2.6 | 0.00 | 0.00 | 0.00 | 89 | 1014.3 |
| 20260906100018 | 75 | 89 | 0.9 | 2.6 | 0.00 | 0.00 | 0.00 | 90 | 1014.5 |
| 20260906095534 | 75 | 63 | 0.9 | 3.5 | 0.00 | 0.00 | 0.00 | 90 | 1014.4 |
| 20260906095021 | 75 | 117 | 1.7 | 3.5 | 0.00 | 0.00 | 0.00 | 90 | 1014.3 |
| 20260906094553 | 75 | 102 | 2.6 | 3.5 | 0.00 | 0.00 | 0.00 | 90 | 1014.1 |
| 20260906094037 | 75 | 127 | 1.7 | 3.5 | 0.00 | 0.00 | 0.00 | 90 | 1014.2 |
| 20260906093523 | 75 | 145 | 1.7 | 3.5 | 0.00 | 0.00 | 0.00 | 90 | 1014.2 |
| 20260906093058 | 75 | 108 | 1.7 | 3.5 | 0.00 | 0.00 | 0.00 | 90 | 1014.1 |
| 20260906092545 | 75 | 129 | 1.7 | 3.5 | 0.00 | 0.00 | 0.00 | 90 | 1014.0 |
| 20260906092016 | 75 | 108 | 2.6 | 3.5 | 0.00 | 0.00 | 0.00 | 90 | 1014.0 |
| 20260906091514 | 76 | 89 | 1.7 | 3.5 | 0.00 | 0.00 | 0.00 | 90 | 1014.0 |
| 20260906091030 | 76 | 115 | 2.6 | 3.5 | 0.00 | 0.00 | 0.00 | 90 | 1014.0 |
| 20260906090518 | 76 | 105 | 1.7 | 4.3 | 0.00 | 0.00 | 0.00 | 90 | 1014.0 |
| 20260906090053 | 76 | 115 | 2.6 | 4.3 | 0.00 | 0.00 | 0.00 | 90 | 1014.1 |
| 20260906085516 | 76 | 105 | 1.7 | 4.3 | 0.00 | 0.00 | 0.00 | 90 | 1014.2 |
| 20260906085022 | 76 | 152 | 1.7 | 2.6 | 0.00 | 0.00 | 0.00 | 90 | 1014.2 |
| 20260906084537 | 76 | 113 | 0.9 | 3.5 | 0.00 | 0.00 | 0.00 | 90 | 1014.2 |
| 20260906084023 | 76 | 129 | 1.7 | 3.5 | 0.00 | 0.00 | 0.00 | 91 | 1014.2 |
| 20260906083555 | 76 | 117 | 1.7 | 3.5 | 0.00 | 0.00 | 0.00 | 91 | 1014.3 |
| 20260906083018 | 76 | 113 | 1.7 | 3.5 | 0.00 | 0.00 | 0.00 | 91 | 1014.4 |
| 20260906082513 | 77 | 135 | 1.7 | 3.5 | 0.00 | 0.00 | 0.00 | 91 | 1014.3 |
| 20260906082031 | 77 | 81 | 1.7 | 3.5 | 0.00 | 0.00 | 0.00 | 90 | 1014.4 |
| 20260906081520 | 77 | 120 | 2.6 | 3.5 | 0.00 | 0.00 | 0.00 | 91 | 1014.4 |
| 20260906081034 | 77 | 126 | 1.7 | 3.5 | 0.00 | 0.00 | 0.00 | 90 | 1014.5 |
| 20260906080521 | 77 | 117 | 1.7 | 3.5 | 0.00 | 0.00 | 0.00 | 90 | 1014.6 |
| 20260906080035 | 77 | 46 | 0.9 | 2.6 | 0.00 | 0.00 | 0.00 | 90 | 1014.6 |
| 20260906075521 | 77 | 102 | 0.9 | 3.5 | 0.00 | 0.00 | 0.00 | 90 | 1014.4 |
| 20260906075014 | 77 | 107 | 1.7 | 3.5 | 0.00 | 0.00 | 0.00 | 90 | 1014.4 |
| 20260906074530 | 77 | 100 | 1.7 | 3.5 | 0.00 | 0.00 | 0.00 | 90 | 1014.3 |
| 20260906074015 | 77 | 102 | 1.7 | 3.5 | 0.00 | 0.00 | 0.00 | 90 | 1014.2 |
| 20260906073532 | 77 | 129 | 1.7 | 4.3 | 0.00 | 0.00 | 0.00 | 90 | 1014.2 |
| 20260906073037 | 77 | 127 | 2.6 | 4.3 | 0.00 | 0.00 | 0.00 | 90 | 1014.3 |
| 20260906072524 | 77 | 119 | 2.6 | 3.5 | 0.00 | 0.00 | 0.00 | 90 | 1014.3 |
| 20260906072059 | 78 | 126 | 2.6 | 3.5 | 0.00 | 0.00 | 0.00 | 90 | 1014.3 |
| 20260906071529 | 78 | 89 | 1.7 | 3.5 | 0.00 | 0.00 | 0.00 | 90 | 1014.3 |
| 20260906071034 | 77 | 100 | 1.7 | 3.5 | 0.00 | 0.00 | 0.00 | 90 | 1014.3 |
| 20260906070522 | 77 | 131 | 1.7 | 4.3 | 0.00 | 0.00 | 0.00 | 90 | 1014.3 |
| 20260906070016 | 77 | 101 | 2.6 | 4.3 | 0.00 | 0.00 | 0.00 | 90 | 1014.2 |
| 20260906065517 | 78 | 107 | 2.6 | 4.3 | 0.00 | 0.00 | 0.00 | 90 | 1014.3 |
| 20260906065033 | 78 | 113 | 1.7 | 3.5 | 0.00 | 0.00 | 0.00 | 90 | 1014.3 |
| 20260906064539 | 78 | 120 | 2.6 | 5.2 | 0.00 | 0.00 | 0.00 | 90 | 1014.2 |
| 20260906064034 | 78 | 144 | 3.5 | 5.2 | 0.00 | 0.00 | 0.00 | 90 | 1014.2 |
| 20260906063517 | 78 | 118 | 3.5 | 5.2 | 0.00 | 0.00 | 0.00 | 90 | 1014.2 |
| 20260906063034 | 78 | 89 | 3.5 | 7.0 | 0.00 | 0.00 | 0.00 | 89 | 1014.2 |
| 20260906062542 | 78 | 100 | 3.5 | 7.0 | 0.00 | 0.00 | 0.00 | 89 | 1014.3 |
| 20260906062035 | 78 | 127 | 2.6 | 4.3 | 0.00 | 0.00 | 0.00 | 89 | 1014.3 |
| 20260906061520 | 78 | 102 | 2.6 | 5.2 | 0.00 | 0.00 | 0.00 | 89 | 1014.3 |
| 20260906061013 | 79 | 114 | 2.6 | 6.1 | 0.00 | 0.00 | 0.00 | 89 | 1014.3 |
| 20260906060550 | 79 | 126 | 3.5 | 6.1 | 0.00 | 0.00 | 0.00 | 89 | 1014.3 |
| 20260906060035 | 79 | 115 | 3.5 | 6.1 | 0.00 | 0.00 | 0.00 | 89 | 1014.3 |
| 20260906055540 | 79 | 128 | 4.3 | 7.0 | 0.00 | 0.00 | 0.00 | 89 | 1014.3 |
| 20260906055050 | 79 | 117 | 3.5 | 7.0 | 0.00 | 0.00 | 0.00 | 89 | 1014.3 |
| 20260906054515 | 79 | 89 | 2.6 | 7.0 | 0.00 | 0.00 | 0.00 | 89 | 1014.4 |
| 20260906054031 | 79 | 105 | 3.5 | 6.1 | 0.00 | 0.00 | 0.00 | 89 | 1014.3 |
| 20260906053517 | 79 | 89 | 4.3 | 6.1 | 0.00 | 0.00 | 0.00 | 89 | 1014.3 |
| 20260906053054 | 79 | 110 | 3.5 | 6.1 | 0.00 | 0.00 | 0.00 | 89 | 1014.3 |
| 20260906052517 | 79 | 89 | 3.5 | 6.1 | 0.00 | 0.00 | 0.00 | 89 | 1014.3 |
| 20260906052053 | 79 | 108 | 3.5 | 6.1 | 0.00 | 0.00 | 0.00 | 89 | 1014.3 |
| 20260906051518 | 79 | 101 | 2.6 | 6.1 | 0.00 | 0.00 | 0.00 | 88 | 1014.3 |
| 20260906051033 | 79 | 115 | 3.5 | 6.1 | 0.00 | 0.00 | 0.00 | 88 | 1014.4 |
| 20260906050540 | 79 | 110 | 3.5 | 7.8 | 0.00 | 0.00 | 0.00 | 88 | 1014.3 |
| 20260906050026 | 79 | 98 | 4.3 | 7.8 | 0.00 | 0.00 | 0.00 | 88 | 1014.4 |
| 20260906045532 | 80 | 96 | 3.5 | 6.1 | 0.00 | 0.00 | 0.00 | 88 | 1014.5 |
| 20260906045038 | 80 | 136 | 3.5 | 5.2 | 0.00 | 0.00 | 0.00 | 87 | 1014.5 |
| 20260906044527 | 80 | 102 | 2.6 | 8.7 | 0.00 | 0.00 | 0.00 | 87 | 1014.4 |
| 20260906044040 | 80 | 107 | 4.3 | 8.7 | 0.00 | 0.00 | 0.00 | 87 | 1014.4 |
| 20260906043529 | 80 | 120 | 3.5 | 6.1 | 0.00 | 0.00 | 0.00 | 87 | 1014.4 |
| 20260906043021 | 80 | 117 | 3.5 | 6.1 | 0.00 | 0.00 | 0.00 | 87 | 1014.4 |
| 20260906042533 | 80 | 119 | 3.5 | 6.1 | 0.00 | 0.00 | 0.00 | 86 | 1014.4 |
| 20260906042016 | 80 | 110 | 3.5 | 6.1 | 0.00 | 0.00 | 0.00 | 86 | 1014.4 |
| 20260906041533 | 80 | 112 | 4.3 | 6.1 | 0.00 | 0.00 | 0.00 | 86 | 1014.4 |
| 20260906041017 | 81 | 128 | 3.5 | 6.1 | 0.00 | 0.00 | 0.00 | 85 | 1014.4 |
| 20260906040554 | 81 | 135 | 2.6 | 7.0 | 0.00 | 0.00 | 0.00 | 85 | 1014.3 |
| 20260906040019 | 81 | 89 | 2.6 | 7.0 | 0.00 | 0.00 | 0.00 | 85 | 1014.3 |
| 20260906035537 | 81 | 115 | 2.6 | 5.2 | 0.00 | 0.00 | 0.00 | 85 | 1014.2 |
| 20260906035044 | 81 | 114 | 2.6 | 6.1 | 0.00 | 0.00 | 0.00 | 85 | 1014.2 |
| 20260906034517 | 81 | 117 | 2.6 | 6.1 | 0.00 | 0.00 | 0.00 | 85 | 1014.2 |
| 20260906034034 | 81 | 103 | 2.6 | 7.0 | 0.00 | 0.00 | 0.00 | 85 | 1014.2 |
| 20260906033518 | 81 | 72 | 3.5 | 7.0 | 0.00 | 0.00 | 0.00 | 85 | 1014.2 |
| 20260906033035 | 81 | 112 | 3.5 | 6.1 | 0.00 | 0.00 | 0.00 | 84 | 1014.2 |
| 20260906032541 | 81 | 124 | 2.6 | 6.1 | 0.00 | 0.00 | 0.00 | 84 | 1014.3 |
| 20260906032030 | 81 | 98 | 3.5 | 6.1 | 0.00 | 0.00 | 0.00 | 84 | 1014.3 |
| 20260906031515 | 82 | 89 | 3.5 | 7.0 | 0.00 | 0.00 | 0.00 | 84 | 1014.3 |
| 20260906031023 | 82 | 108 | 3.5 | 7.0 | 0.00 | 0.00 | 0.00 | 84 | 1014.2 |
| 20260906030539 | 82 | 70 | 3.5 | 6.1 | 0.00 | 0.00 | 0.00 | 84 | 1014.2 |
| 20260906030027 | 82 | 105 | 3.5 | 6.1 | 0.00 | 0.00 | 0.00 | 84 | 1014.1 |
| 20260906025520 | 82 | 102 | 3.5 | 6.1 | 0.00 | 0.00 | 0.00 | 84 | 1014.1 |
| 20260906025027 | 82 | 89 | 3.5 | 6.1 | 0.00 | 0.00 | 0.00 | 83 | 1014.0 |
| 20260906024536 | 82 | 110 | 3.5 | 6.1 | 0.00 | 0.00 | 0.00 | 83 | 1013.9 |
| 20260906024033 | 82 | 89 | 3.5 | 6.1 | 0.00 | 0.00 | 0.00 | 83 | 1013.9 |
| 20260906023518 | 82 | 110 | 3.5 | 7.0 | 0.00 | 0.00 | 0.00 | 83 | 1013.8 |
| 20260906023035 | 83 | 120 | 3.5 | 7.0 | 0.00 | 0.00 | 0.00 | 83 | 1013.7 |
| 20260906022520 | 83 | 105 | 2.6 | 5.2 | 0.00 | 0.00 | 0.00 | 83 | 1013.5 |
| 20260906022015 | 83 | 96 | 2.6 | 7.0 | 0.00 | 0.00 | 0.00 | 83 | 1013.6 |
| 20260906021533 | 83 | 74 | 2.6 | 7.0 | 0.00 | 0.00 | 0.00 | 82 | 1013.5 |
| 20260906021018 | 83 | 107 | 1.7 | 5.2 | 0.00 | 0.00 | 0.00 | 82 | 1013.3 |
| 20260906020533 | 84 | 117 | 2.6 | 5.2 | 0.00 | 0.00 | 0.00 | 82 | 1013.2 |
| 20260906020023 | 84 | 127 | 2.6 | 5.2 | 0.00 | 0.00 | 0.00 | 82 | 1013.0 |
| 20260906015538 | 84 | 125 | 2.6 | 5.2 | 0.00 | 0.00 | 0.00 | 81 | 1013.0 |
| 20260906015045 | 84 | 120 | 2.6 | 4.3 | 0.00 | 0.00 | 0.00 | 81 | 1012.9 |
| 20260906014602 | 84 | 135 | 1.7 | 2.6 | 0.00 | 0.00 | 0.00 | 81 | 1012.8 |
| 20260906014029 | 84 | 1 | 0.9 | 3.5 | 0.00 | 0.00 | 0.00 | 81 | 1012.7 |
| 20260906013515 | 84 | 103 | 0.9 | 3.5 | 0.00 | 0.00 | 0.00 | 80 | 1012.8 |
| 20260906013022 | 85 | 119 | 1.7 | 4.3 | 0.00 | 0.00 | 0.00 | 80 | 1012.5 |
| 20260906012516 | 85 | 117 | 1.7 | 4.3 | 0.00 | 0.00 | 0.00 | 80 | 1012.4 |
| 20260906012021 | 85 | 133 | 2.6 | 4.3 | 0.00 | 0.00 | 0.00 | 79 | 1012.4 |
| 20260906011537 | 85 | 113 | 2.6 | 3.5 | 0.00 | 0.00 | 0.00 | 79 | 1012.3 |
| 20260906011026 | 85 | 117 | 1.7 | 2.6 | 0.00 | 0.00 | 0.00 | 79 | 1012.5 |
| 20260906010520 | 86 | 124 | 0.9 | 3.5 | 0.00 | 0.00 | 0.00 | 78 | 1012.3 |
| 20260906010014 | 86 | 63 | 0.9 | 3.5 | 0.00 | 0.00 | 0.00 | 78 | 1012.3 |
| 20260906005516 | 86 | 110 | 1.7 | 3.5 | 0.00 | 0.00 | 0.00 | 77 | 1012.4 |
| 20260906005033 | 87 | 98 | 1.7 | 4.3 | 0.00 | 0.00 | 0.00 | 77 | 1012.4 |
| 20260906004540 | 87 | 89 | 2.6 | 4.3 | 0.00 | 0.00 | 0.00 | 77 | 1012.3 |
| 20260906004034 | 87 | 127 | 2.6 | 5.2 | 0.00 | 0.00 | 0.00 | 76 | 1012.5 |
| 20260906003541 | 88 | 121 | 2.6 | 5.2 | 0.00 | 0.00 | 0.00 | 76 | 1012.5 |
| 20260906003031 | 88 | 74 | 1.7 | 3.5 | 0.00 | 0.00 | 0.00 | 76 | 1012.4 |
| 20260906002517 | 88 | 108 | 1.7 | 5.2 | 0.00 | 0.00 | 0.00 | 75 | 1012.4 |
| 20260906002034 | 88 | 108 | 3.5 | 5.2 | 0.00 | 0.00 | 0.00 | 75 | 1012.3 |
| 20260906001524 | 88 | 127 | 2.6 | 5.2 | 0.00 | 0.00 | 0.00 | 74 | 1012.1 |
| 20260906001016 | 89 | 103 | 2.6 | 6.1 | 0.00 | 0.00 | 0.00 | 73 | 1012.1 |
| 20260906000532 | 89 | 129 | 3.5 | 7.0 | 0.00 | 0.00 | 0.00 | 73 | 1012.1 |
| 20260906000019 | 89 | 118 | 3.5 | 7.0 | 0.00 | 0.00 | 0.00 | 72 | 1012.1 |
| 20260905235535 | 89 | 125 | 3.5 | 7.0 | 0.00 | 0.00 | 0.00 | 72 | 1012.1 |
| 20260905235043 | 90 | 135 | 4.3 | 5.2 | 0.00 | 0.00 | 0.00 | 72 | 1012.0 |
| 20260905234516 | 90 | 145 | 2.6 | 5.2 | 0.00 | 0.00 | 0.00 | 72 | 1012.0 |
| 20260905234023 | 90 | 124 | 2.6 | 7.8 | 0.00 | 0.00 | 0.00 | 71 | 1012.0 |
| 20260905233534 | 90 | 128 | 3.5 | 7.8 | 0.00 | 0.00 | 0.00 | 70 | 1012.0 |
| 20260905233019 | 91 | 152 | 3.5 | 7.0 | 0.00 | 0.00 | 0.00 | 69 | 1012.1 |
| 20260905232555 | 91 | 194 | 4.3 | 7.0 | 0.00 | 0.00 | 0.00 | 68 | 1012.1 |
| 20260905232020 | 91 | 204 | 4.3 | 7.8 | 0.00 | 0.00 | 0.00 | 67 | 1012.1 |
| 20260905231535 | 91 | 192 | 3.5 | 7.8 | 0.00 | 0.00 | 0.00 | 68 | 1012.0 |
| 20260905231021 | 91 | 89 | 3.5 | 8.7 | 0.00 | 0.00 | 0.00 | 68 | 1011.8 |
| 20260905230535 | 91 | 196 | 4.3 | 9.6 | 0.00 | 0.00 | 0.00 | 67 | 1011.8 |
| 20260905230024 | 91 | 139 | 4.3 | 9.6 | 0.00 | 0.00 | 0.00 | 68 | 1011.9 |
| 20260905225516 | 91 | 190 | 4.3 | 13.0 | 0.00 | 0.00 | 0.00 | 66 | 1011.9 |
| 20260905225033 | 92 | 193 | 5.2 | 10.4 | 0.00 | 0.00 | 0.00 | 67 | 1011.9 |
| 20260905224520 | 92 | 174 | 5.2 | 10.4 | 0.00 | 0.00 | 0.00 | 67 | 1011.8 |
| 20260905224016 | 92 | 140 | 5.2 | 8.7 | 0.00 | 0.00 | 0.00 | 66 | 1011.9 |
| 20260905223533 | 92 | 188 | 5.2 | 10.4 | 0.00 | 0.00 | 0.00 | 67 | 1011.8 |
| 20260905223018 | 92 | 199 | 4.3 | 10.4 | 0.00 | 0.00 | 0.00 | 66 | 1011.8 |
| 20260905222533 | 92 | 105 | 5.2 | 9.6 | 0.00 | 0.00 | 0.00 | 67 | 1011.9 |
| 20260905222022 | 92 | 32 | 5.2 | 12.2 | 0.00 | 0.00 | 0.00 | 67 | 1012.0 |
| 20260905221536 | 92 | 210 | 5.2 | 12.2 | 0.00 | 0.00 | 0.00 | 66 | 1012.0 |
| 20260905221019 | 92 | 173 | 6.1 | 12.2 | 0.00 | 0.00 | 0.00 | 66 | 1012.2 |
| 20260905220515 | 92 | 79 | 5.2 | 12.2 | 0.00 | 0.00 | 0.00 | 66 | 1012.1 |
| 20260905220024 | 92 | 133 | 7.0 | 12.2 | 0.00 | 0.00 | 0.00 | 67 | 1012.2 |
| 20260905215516 | 92 | 140 | 5.2 | 12.2 | 0.00 | 0.00 | 0.00 | 65 | 1012.2 |
| 20260905215034 | 91 | 142 | 5.2 | 13.9 | 0.00 | 0.00 | 0.00 | 67 | 1012.2 |
| 20260905214523 | 91 | 215 | 6.1 | 13.9 | 0.00 | 0.00 | 0.00 | 67 | 1012.1 |
| 20260905214033 | 91 | 206 | 6.1 | 13.9 | 0.00 | 0.00 | 0.00 | 67 | 1012.2 |
| 20260905213522 | 91 | 173 | 7.0 | 13.9 | 0.00 | 0.00 | 0.00 | 66 | 1012.1 |
| 20260905213036 | 92 | 194 | 5.2 | 12.2 | 0.00 | 0.00 | 0.00 | 66 | 1012.3 |
| 20260905212544 | 91 | 198 | 7.0 | 12.2 | 0.00 | 0.00 | 0.00 | 66 | 1012.3 |
| 20260905212037 | 91 | 213 | 7.0 | 11.3 | 0.00 | 0.00 | 0.00 | 66 | 1012.3 |
| 20260905211553 | 91 | 148 | 5.2 | 13.9 | 0.00 | 0.00 | 0.00 | 66 | 1012.5 |
| 20260905211018 | 91 | 110 | 6.1 | 13.9 | 0.00 | 0.00 | 0.00 | 65 | 1012.6 |
| 20260905210533 | 91 | 123 | 6.1 | 12.2 | 0.00 | 0.00 | 0.00 | 63 | 1012.6 |
| 20260905210022 | 92 | 189 | 5.2 | 12.2 | 0.00 | 0.00 | 0.00 | 65 | 1012.6 |
| 20260905205536 | 91 | 187 | 4.3 | 12.2 | 0.00 | 0.00 | 0.00 | 66 | 1012.8 |
| 20260905205020 | 91 | 77 | 6.1 | 10.4 | 0.00 | 0.00 | 0.00 | 66 | 1012.6 |
| 20260905204535 | 91 | 138 | 6.1 | 18.2 | 0.00 | 0.00 | 0.00 | 65 | 1012.8 |
| 20260905204043 | 91 | 114 | 6.1 | 18.2 | 0.00 | 0.00 | 0.00 | 64 | 1012.8 |
| 20260905203534 | 91 | 135 | 7.8 | 14.8 | 0.00 | 0.00 | 0.00 | 65 | 1012.9 |
| 20260905203042 | 90 | 112 | 7.8 | 13.9 | 0.00 | 0.00 | 0.00 | 65 | 1013.0 |
| 20260905202529 | 91 | 165 | 5.2 | 12.2 | 0.00 | 0.00 | 0.00 | 65 | 1013.0 |
| 20260905202016 | 91 | 178 | 6.1 | 13.0 | 0.00 | 0.00 | 0.00 | 64 | 1013.3 |
| 20260905201533 | 91 | 113 | 7.0 | 13.0 | 0.00 | 0.00 | 0.00 | 66 | 1013.5 |
| 20260905201017 | 91 | 110 | 7.8 | 14.8 | 0.00 | 0.00 | 0.00 | 64 | 1013.5 |
| 20260905200534 | 92 | 98 | 8.7 | 14.8 | 0.00 | 0.00 | 0.00 | 64 | 1013.8 |
| 20260905200020 | 92 | 121 | 10.4 | 17.4 | 0.00 | 0.00 | 0.00 | 64 | 1013.9 |
| 20260905195533 | 91 | 134 | 10.4 | 17.4 | 0.00 | 0.00 | 0.00 | 64 | 1014.0 |
| 20260905195022 | 91 | 125 | 10.4 | 16.5 | 0.00 | 0.00 | 0.00 | 63 | 1014.1 |
| 20260905194534 | 91 | 125 | 9.6 | 15.6 | 0.00 | 0.00 | 0.00 | 62 | 1014.3 |
| 20260905194020 | 91 | 125 | 9.6 | 20.9 | 0.00 | 0.00 | 0.00 | 62 | 1014.3 |
| 20260905193516 | 91 | 110 | 9.6 | 20.9 | 0.00 | 0.00 | 0.00 | 59 | 1014.4 |